User: anonymous   Login
Location: Carbonear
(47.7333°N, 53.2500°W)
Time: 11:11:37
(UTC+00:00)
Language:

ESTCUBE 1 - Orbit

View from above orbital plane
View from above orbital plane
View from above satellite
View from above satellite

Ground track
Ground track

The orbit data is extracted from the following two-line orbital elements,

1 39161U 13021C   22337.75895564  .00001068  00000-0  17260-3 0  9997
2 39161  97.8939  50.4993 0008339 235.9260 124.1213 14.73323620514394
Epoch (UTC): 03 December 2022 18:12:53
Eccentricity: 0.0008339
inclination: 97.8939°
perigee height: 644 km
apogee height: 656 km
right ascension of ascending node: 50.4993°
argument of perigee: 235.9260°
revolutions per day: 14.73323620
mean anomaly at epoch: 124.1213°
orbit number at epoch: 51439

The dashed part of the orbit path shows where the satellite is in the earth's shadow,  

DLR